User: anonymous   Login
Location: Grange Verzio
(44.5000°N, 6.9833°E)
Time: 05:31:47
(UTC+00:00)
Language:

Cosmos 1140 Rocket - Orbit

View from above orbital plane
View from above orbital plane
View from above satellite
View from above satellite

Ground track
Ground track

The orbit data is extracted from the following two-line orbital elements,

1 11574U 79089B   24170.72511057  .00000279  00000-0  93912-4 0  9999
2 11574  74.0675 174.6773 0015024 151.9344 208.2625 14.41562680345445
Epoch (UTC): 18 June 2024 17:24:09
Eccentricity: 0.0015024
inclination: 74.0675°
perigee height: 742 km
apogee height: 764 km
right ascension of ascending node: 174.6773°
argument of perigee: 151.9344°
revolutions per day: 14.41562680
mean anomaly at epoch: 208.2625°
orbit number at epoch: 34544

The dashed part of the orbit path shows where the satellite is in the earth's shadow,  

DLR